sat.trackr.live / text

‹ back to catalog

STARLINK-32919

NORAD 63150 · 2025-043U

PAYLOAD ACTIVE UNKNOWN

§ Identity

Operator
Country
US
Launch date
2025-03-03
Launch site
AFETR
Launch vehicle
Mass (kg)
RCS (m²)

Purposes: comms

External: N2YO · Heavens-Above · Gunter

§ Orbital elements

Epoch: 2026-09-20T13:10:28.690752Z

Period
94.27 min
Inclination
43.0016°
Eccentricity
0.0001376
Mean motion
15.27597017 rev/d
Perigee alt
482.1 km
Apogee alt
483.9 km
Semi-major
6,861.1 km
B*
8.4291e-4
RAAN
355.7594°
Arg perigee
262.8571°
Mean anomaly
97.2124°
Rev number
8,716

§ Raw data

STARLINK-329191 63150U 25043U   26263.54894318  .00023017  00000+0  84291-3 0  99992 63150  43.0016 355.7594 0001376 262.8571  97.2124 15.27597017 87168

JSON: /api/v1/satellites/63150 · /tle

For live sub-satellite position, see the globe view (requires WebGL).

§ Visibility from observer

Set your observer location to see the next 7 days of passes ≥ 10°. The values pass through the URL so the page stays shareable.

No JS? Fill the form by hand. The geolocation button needs JavaScript.